• In Germany
  • List of Countries
  • For 7 days
  • Water Temperature
  • Satellite Maps
  • Weather Map
  • Weather Widgets
  • user-avatar
    Login

    Hourly Weather Batumi

    Today, 15 December, Friday

    Time Temperature Precipitation Wind Pressure Humidity
    00:00 +14°C° 0 mm 2 mps 763 mmHg 54%
    01:00 +14°C° 0 mm 2 mps 763 mmHg 54%
    02:00 +14°C° 0 mm 2 mps 763 mmHg 54%
    03:00 +14°C° 0 mm 2 mps 763 mmHg 54%
    04:00 +14°C° 0 mm 2 mps 763 mmHg 53%
    05:00 +13°C° 0 mm 2 mps 763 mmHg 53%
    06:00 +13°C° 0 mm 2 mps 764 mmHg 53%
    07:00 +13°C° 0 mm 2 mps 764 mmHg 53%
    08:00 +14°C° 0 mm 2 mps 764 mmHg 53%
    09:00 +14°C° 0 mm 2 mps 764 mmHg 53%
    10:00 +16°C° 0 mm 2 mps 764 mmHg 52%
    11:00 +18°C° 0 mm 1 mps 764 mmHg 50%
    12:00 +19°C° 0 mm 1 mps 764 mmHg 49%
    13:00 +19°C° 0 mm 1 mps 764 mmHg 50%
    14:00 +19°C° 0 mm 1 mps 764 mmHg 52%
    15:00 +19°C° 0 mm 1 mps 764 mmHg 53%
    16:00 +18°C° 0 mm 1 mps 765 mmHg 55%
    17:00 +15°C° 0 mm 1 mps 765 mmHg 58%
    18:00 +14°C° 0 mm 2 mps 766 mmHg 60%
    19:00 +14°C° 0 mm 2 mps 766 mmHg 58%
    20:00 +13°C° 0 mm 2 mps 766 mmHg 57%
    21:00 +13°C° 0 mm 2 mps 767 mmHg 55%
    22:00 +13°C° 0 mm 2 mps 767 mmHg 54%
    23:00 +12°C° 0 mm 3 mps 767 mmHg 52%

    Tomorrow, 16 December, Saturday

    Time Temperature Precipitation Wind Pressure Humidity
    00:00 +12°C° 0 mm 3 mps 767 mmHg 51%
    01:00 +12°C° 0 mm 3 mps 767 mmHg 50%
    02:00 +11°C° 0 mm 3 mps 767 mmHg 49%
    03:00 +11°C° 0 mm 3 mps 767 mmHg 48%
    04:00 +11°C° 0 mm 3 mps 767 mmHg 47%
    05:00 +11°C° 0 mm 3 mps 767 mmHg 46%
    06:00 +11°C° 0 mm 4 mps 767 mmHg 45%
    07:00 +12°C° 0 mm 4 mps 767 mmHg 45%
    08:00 +13°C° 0 mm 4 mps 767 mmHg 44%
    09:00 +13°C° 0 mm 4 mps 767 mmHg 44%
    10:00 +16°C° 0 mm 3 mps 766 mmHg 43%
    11:00 +17°C° 0 mm 3 mps 765 mmHg 42%
    12:00 +19°C° 0 mm 3 mps 765 mmHg 41%
    13:00 +19°C° 0 mm 3 mps 764 mmHg 43%
    14:00 +19°C° 0 mm 3 mps 764 mmHg 45%
    15:00 +19°C° 0 mm 3 mps 764 mmHg 48%
    16:00 +17°C° 0 mm 3 mps 764 mmHg 48%
    17:00 +16°C° 0 mm 3 mps 765 mmHg 49%
    18:00 +13°C° 0 mm 4 mps 765 mmHg 50%
    19:00 +13°C° 0 mm 4 mps 765 mmHg 48%
    20:00 +13°C° 0 mm 4 mps 766 mmHg 47%
    21:00 +13°C° 0 mm 4 mps 766 mmHg 45%
    22:00 +13°C° 0 mm 4 mps 766 mmHg 44%
    23:00 +13°C° 0 mm 4 mps 765 mmHg 44%

    Day after tomorrow, 17 December, Sunday

    Time Temperature Precipitation Wind Pressure Humidity
    00:00 +13°C° 0 mm 4 mps 765 mmHg 43%
    01:00 +13°C° 0 mm 4 mps 765 mmHg 43%
    02:00 +13°C° 0 mm 4 mps 765 mmHg 43%
    03:00 +13°C° 0 mm 4 mps 765 mmHg 43%
    04:00 +12°C° 0 mm 4 mps 765 mmHg 43%
    05:00 +12°C° 0 mm 4 mps 764 mmHg 43%
    06:00 +12°C° 0 mm 4 mps 764 mmHg 43%
    07:00 +13°C° 0 mm 4 mps 765 mmHg 43%
    08:00 +13°C° 0 mm 4 mps 765 mmHg 43%
    09:00 +13°C° 0 mm 3 mps 765 mmHg 44%
    10:00 +16°C° 0 mm 3 mps 764 mmHg 43%
    11:00 +17°C° 0 mm 3 mps 764 mmHg 43%
    12:00 +18°C° 0 mm 2 mps 763 mmHg 43%
    13:00 +18°C° 0 mm 2 mps 763 mmHg 44%
    14:00 +18°C° 0 mm 2 mps 763 mmHg 46%
    15:00 +18°C° 0 mm 2 mps 763 mmHg 48%
    16:00 +17°C° 0 mm 2 mps 763 mmHg 51%
    17:00 +16°C° 0 mm 2 mps 764 mmHg 54%
    18:00 +14°C° 0 mm 3 mps 764 mmHg 56%
    19:00 +14°C° 0 mm 3 mps 765 mmHg 57%
    20:00 +14°C° 0 mm 3 mps 765 mmHg 58%
    21:00 +14°C° 0 mm 3 mps 765 mmHg 59%
    22:00 +13°C° 0 mm 3 mps 765 mmHg 59%
    23:00 +13°C° 0 mm 3 mps 765 mmHg 60%

    18 December, Monday

    Time Temperature Precipitation Wind Pressure Humidity
    00:00 +13°C° 0 mm 3 mps 765 mmHg 61%
    01:00 +13°C° 0 mm 4 mps 766 mmHg 62%
    02:00 +13°C° 0 mm 4 mps 766 mmHg 63%
    03:00 +13°C° 0 mm 4 mps 766 mmHg 63%
    04:00 +13°C° 0 mm 4 mps 766 mmHg 65%
    05:00 +13°C° 0 mm 3 mps 766 mmHg 66%
    06:00 +13°C° 0 mm 3 mps 766 mmHg 68%
    07:00 +13°C° 0.1 mm 3 mps 766 mmHg 69%
    08:00 +13°C° 0.1 mm 3 mps 766 mmHg 70%
    09:00 +14°C° 0.1 mm 3 mps 767 mmHg 71%
    10:00 +14°C° 0.1 mm 3 mps 766 mmHg 69%
    11:00 +16°C° 0.1 mm 2 mps 766 mmHg 68%
    12:00 +17°C° 0.1 mm 2 mps 766 mmHg 67%
    13:00 +17°C° 0.2 mm 2 mps 765 mmHg 68%
    14:00 +17°C° 0.2 mm 2 mps 765 mmHg 70%
    15:00 +17°C° 0.2 mm 3 mps 764 mmHg 71%
    16:00 +16°C° 0.1 mm 3 mps 764 mmHg 73%
    17:00 +14°C° 0.1 mm 3 mps 764 mmHg 75%
    18:00 +13°C° 0.1 mm 3 mps 765 mmHg 77%
    19:00 +13°C° 0.1 mm 3 mps 765 mmHg 77%
    20:00 +13°C° 0.1 mm 3 mps 765 mmHg 77%
    21:00 +14°C° 0.1 mm 2 mps 765 mmHg 77%
    22:00 +13°C° 0.1 mm 3 mps 765 mmHg 77%
    23:00 +13°C° 0.1 mm 3 mps 765 mmHg 78%

    19 December, Tuesday

    Time Temperature Precipitation Wind Pressure Humidity
    00:00 +13°C° 0.1 mm 3 mps 765 mmHg 78%
    01:00 +13°C° 0.1 mm 3 mps 764 mmHg 78%
    02:00 +12°C° 0.1 mm 3 mps 764 mmHg 78%
    03:00 +12°C° 0.1 mm 3 mps 764 mmHg 77%
    04:00 +12°C° 0.2 mm 3 mps 764 mmHg 77%
    05:00 +12°C° 0.2 mm 3 mps 763 mmHg 77%
    06:00 +12°C° 0.2 mm 3 mps 763 mmHg 77%
    07:00 +12°C° 0.2 mm 3 mps 763 mmHg 77%
    08:00 +12°C° 0.2 mm 3 mps 764 mmHg 78%
    09:00 +12°C° 0.2 mm 3 mps 764 mmHg 78%
    10:00 +13°C° 0.6 mm 3 mps 764 mmHg 79%
    11:00 +13°C° 0.6 mm 3 mps 764 mmHg 80%
    12:00 +13°C° 0.6 mm 3 mps 764 mmHg 82%
    13:00 +13°C° 1.9 mm 3 mps 764 mmHg 85%
    14:00 +12°C° 1.9 mm 4 mps 765 mmHg 88%
    15:00 +12°C° 1.9 mm 5 mps 765 mmHg 92%
    16:00 +10°C° 1.3 mm 5 mps 766 mmHg 92%
    17:00 +11°C° 1.3 mm 4 mps 767 mmHg 93%
    18:00 +10°C° 1.3 mm 4 mps 768 mmHg 93%
    19:00 +10°C° 0.5 mm 4 mps 768 mmHg 93%
    20:00 +10°C° 0.5 mm 3 mps 769 mmHg 93%
    21:00 +10°C° 0.5 mm 2 mps 769 mmHg 93%
    22:00 +9°C° 0.2 mm 2 mps 769 mmHg 93%
    23:00 +10°C° 0.2 mm 1 mps 769 mmHg 93%

    20 December, Wednesday

    Time Temperature Precipitation Wind Pressure Humidity
    00:00 +10°C° 0.2 mm 1 mps 770 mmHg 93%
    01:00 +10°C° 0.1 mm 1 mps 769 mmHg 92%
    02:00 +10°C° 0.1 mm 1 mps 769 mmHg 91%
    03:00 +9°C° 0.1 mm 1 mps 769 mmHg 91%
    04:00 +9°C° 0.1 mm 1 mps 769 mmHg 89%
    05:00 +9°C° 0.1 mm 2 mps 769 mmHg 88%
    06:00 +9°C° 0.1 mm 2 mps 769 mmHg 86%
    07:00 +9°C° 0.1 mm 2 mps 768 mmHg 84%
    08:00 +10°C° 0.1 mm 3 mps 768 mmHg 82%
    09:00 +10°C° 0.1 mm 3 mps 768 mmHg 81%
    10:00 +11°C° 0.1 mm 3 mps 768 mmHg 79%
    11:00 +13°C° 0.1 mm 3 mps 767 mmHg 78%
    12:00 +14°C° 0.1 mm 3 mps 766 mmHg 76%
    13:00 +14°C° 0.1 mm 3 mps 766 mmHg 77%
    14:00 +14°C° 0.1 mm 3 mps 766 mmHg 79%
    15:00 +14°C° 0.1 mm 3 mps 766 mmHg 80%
    16:00 +14°C° 0.2 mm 2 mps 766 mmHg 82%
    17:00 +13°C° 0.2 mm 2 mps 766 mmHg 84%
    18:00 +13°C° 0.2 mm 2 mps 767 mmHg 86%
    19:00 +13°C° 0.3 mm 2 mps 767 mmHg 86%
    20:00 +13°C° 0.3 mm 2 mps 767 mmHg 85%
    21:00 +13°C° 0.3 mm 2 mps 767 mmHg 85%
    22:00 +13°C° 0.4 mm 2 mps 767 mmHg 86%
    23:00 +12°C° 0.4 mm 2 mps 766 mmHg 87%
    Show more